EJM65 KPBI-TJSJ

Flight info

Callsign EJM65
Flight time 2h 13m
Altitude 41000
Route MIXAE4 HALBI DCT ZFP DCT HAGIT Y290 BEANO BEANO3
Aircraft CL60/M-SADE3FGHIJ3J4J7P2RWXY/HB1D1

Departure

Time 2026-04-25 14:14
Airport Palm Beach International Airport (KPBI)

Arrival

Time 2026-04-25 16:28
Airport Luis Munoz Marin International Airport (TJSJ)
Time Latitude Longitude Altitude Speed Heading
2026-04-25 13:54 26.69119 -80.10726 20 ft 0 kts 91°
2026-04-25 14:09 26.69119 -80.10725 20 ft 0 kts 91°
2026-04-25 14:10 26.69077 -80.10664 20 ft 15 kts 163°
2026-04-25 14:10 26.68943 -80.10669 20 ft 22 kts 184°
2026-04-25 14:10 26.68778 -80.10677 20 ft 24 kts 181°
2026-04-25 14:10 26.68635 -80.10683 20 ft 17 kts 182°
2026-04-25 14:11 26.68565 -80.10722 20 ft 12 kts 256°
2026-04-25 14:11 26.68536 -80.10813 20 ft 10 kts 210°
2026-04-25 14:11 26.68445 -80.10820 20 ft 10 kts 182°
2026-04-25 14:11 26.68433 -80.10821 20 ft 0 kts 182°
2026-04-25 14:12 26.68432 -80.10821 20 ft 2 kts 182°
2026-04-25 14:12 26.68375 -80.10823 20 ft 13 kts 182°
2026-04-25 14:12 26.68317 -80.10770 20 ft 3 kts 93°
2026-04-25 14:14 26.68307 -80.10574 20 ft 53 kts 93°
2026-04-25 14:14 26.68280 -80.09878 17 ft 124 kts 92°
2026-04-25 14:14 26.68246 -80.08729 250 ft 157 kts 93°
2026-04-25 14:14 26.68235 -80.07604 1103 ft 145 kts 91°
2026-04-25 14:15 26.68241 -80.06543 1895 ft 137 kts 91°
2026-04-25 14:15 26.68242 -80.06184 2056 ft 143 kts 91°
2026-04-25 14:15 26.68856 -80.03999 2304 ft 210 kts 65°
2026-04-25 14:15 26.69536 -80.02475 2426 ft 226 kts 65°
2026-04-25 14:16 26.70240 -80.00884 2532 ft 244 kts 65°
2026-04-25 14:16 26.71036 -79.99081 3309 ft 270 kts 65°
2026-04-25 14:16 26.71604 -79.97104 4660 ft 270 kts 86°
2026-04-25 14:16 26.71505 -79.95039 5825 ft 276 kts 98°
2026-04-25 14:17 26.71256 -79.92938 6977 ft 280 kts 98°
2026-04-25 14:17 26.71004 -79.90765 8031 ft 285 kts 97°
2026-04-25 14:17 26.70754 -79.88596 9053 ft 290 kts 97°
2026-04-25 14:17 26.70498 -79.86372 10076 ft 294 kts 97°
2026-04-25 14:18 26.70237 -79.84115 11099 ft 298 kts 96°
2026-04-25 14:18 26.69973 -79.81816 11955 ft 309 kts 96°
2026-04-25 14:18 26.69686 -79.79328 12437 ft 334 kts 96°
2026-04-25 14:18 26.69384 -79.76701 13105 ft 350 kts 96°
2026-04-25 14:19 26.69073 -79.73992 13934 ft 360 kts 95°
2026-04-25 14:19 26.68753 -79.71209 14770 ft 368 kts 96°
2026-04-25 14:19 26.68424 -79.68364 15639 ft 373 kts 96°
2026-04-25 14:19 26.68088 -79.65458 16433 ft 381 kts 96°
2026-04-25 14:20 26.67896 -79.62505 17208 ft 387 kts 89°
2026-04-25 14:20 26.67889 -79.61496 17461 ft 389 kts 89°
2026-04-25 14:20 26.67880 -79.56459 18735 ft 399 kts 88°
2026-04-25 14:20 26.67870 -79.53348 19483 ft 404 kts 88°
2026-04-25 14:21 26.67859 -79.50182 20218 ft 409 kts 88°
2026-04-25 14:21 26.67847 -79.46994 20922 ft 415 kts 88°
2026-04-25 14:21 26.67833 -79.43786 21619 ft 419 kts 88°
2026-04-25 14:21 26.67817 -79.40524 22333 ft 423 kts 88°
2026-04-25 14:22 26.67801 -79.37235 22997 ft 427 kts 89°
2026-04-25 14:22 26.67783 -79.33910 23646 ft 432 kts 89°
2026-04-25 14:22 26.67765 -79.30558 24285 ft 436 kts 89°
2026-04-25 14:22 26.67745 -79.27171 24903 ft 440 kts 89°
2026-04-25 14:23 26.67724 -79.23736 25497 ft 444 kts 89°
2026-04-25 14:23 26.67702 -79.20261 26107 ft 448 kts 89°
2026-04-25 14:23 26.67658 -79.16764 26708 ft 452 kts 92°
2026-04-25 14:23 26.67116 -79.13327 27295 ft 455 kts 108°
2026-04-25 14:24 26.65871 -79.10062 27832 ft 459 kts 116°
2026-04-25 14:24 26.64471 -79.06830 28350 ft 463 kts 116°
2026-04-25 14:24 26.63079 -79.03599 28914 ft 466 kts 116°
2026-04-25 14:24 26.61681 -79.00352 29590 ft 465 kts 116°
2026-04-25 14:25 26.60276 -78.97092 30322 ft 462 kts 116°
2026-04-25 14:25 26.58901 -78.93902 31036 ft 459 kts 116°
2026-04-25 14:25 26.57522 -78.90704 31730 ft 456 kts 116°
2026-04-25 14:25 26.57060 -78.89633 31954 ft 455 kts 116°
2026-04-25 14:26 26.54774 -78.84338 32990 ft 453 kts 116°
2026-04-25 14:26 26.53422 -78.81209 33569 ft 452 kts 116°
2026-04-25 14:26 26.52043 -78.78051 34132 ft 451 kts 118°
2026-04-25 14:26 26.50430 -78.75053 34681 ft 449 kts 124°
2026-04-25 14:27 26.48719 -78.72169 35200 ft 449 kts 124°
2026-04-25 14:27 26.46994 -78.69251 35644 ft 448 kts 124°
2026-04-25 14:27 26.45272 -78.66339 36071 ft 448 kts 125°
2026-04-25 14:27 26.43561 -78.63447 36469 ft 448 kts 125°
2026-04-25 14:28 26.41859 -78.60569 36842 ft 449 kts 125°
2026-04-25 14:28 26.40131 -78.57649 37176 ft 449 kts 125°
2026-04-25 14:28 26.38429 -78.54775 37495 ft 450 kts 125°
2026-04-25 14:28 26.36696 -78.51849 37811 ft 451 kts 125°
2026-04-25 14:29 26.34977 -78.48947 38110 ft 451 kts 125°
2026-04-25 14:29 26.33244 -78.46023 38397 ft 452 kts 125°
2026-04-25 14:29 26.31526 -78.43127 38683 ft 452 kts 125°
2026-04-25 14:29 26.29791 -78.40202 38968 ft 452 kts 125°
2026-04-25 14:30 26.28063 -78.37289 39247 ft 452 kts 125°
2026-04-25 14:30 26.24594 -78.31452 39806 ft 451 kts 126°
2026-04-25 14:30 26.22855 -78.28526 40062 ft 452 kts 126°
2026-04-25 14:31 26.21122 -78.25614 40307 ft 452 kts 126°
2026-04-25 14:31 26.19400 -78.22720 40497 ft 452 kts 126°
2026-04-25 14:31 26.17654 -78.19789 40684 ft 452 kts 126°
2026-04-25 14:31 26.15929 -78.16894 40862 ft 452 kts 126°
2026-04-25 14:32 26.14194 -78.13984 41005 ft 454 kts 126°
2026-04-25 14:32 26.12445 -78.11053 40995 ft 458 kts 126°
2026-04-25 14:32 26.08902 -78.05124 40998 ft 467 kts 126°
2026-04-25 14:33 26.05283 -77.99073 40991 ft 474 kts 126°
2026-04-25 14:33 26.01590 -77.92905 40994 ft 481 kts 126°
2026-04-25 14:34 25.97875 -77.86709 40996 ft 487 kts 126°
2026-04-25 14:34 25.94095 -77.80412 40996 ft 492 kts 126°
2026-04-25 14:35 25.90299 -77.74095 40997 ft 496 kts 126°
2026-04-25 14:35 25.86451 -77.67702 40999 ft 499 kts 126°
2026-04-25 14:36 25.82604 -77.61319 40999 ft 501 kts 126°
2026-04-25 14:36 25.78736 -77.54909 41000 ft 501 kts 126°
2026-04-25 14:37 25.74846 -77.48472 41001 ft 501 kts 126°
2026-04-25 14:37 25.70983 -77.42089 41002 ft 501 kts 126°
2026-04-25 14:38 25.67122 -77.35717 41002 ft 500 kts 126°
2026-04-25 14:38 25.63232 -77.29308 41005 ft 500 kts 127°
2026-04-25 14:39 25.59355 -77.22927 41007 ft 500 kts 127°
2026-04-25 14:39 25.55483 -77.16564 41007 ft 501 kts 127°
2026-04-25 14:40 25.51584 -77.10165 41008 ft 501 kts 127°
2026-04-25 14:40 25.47704 -77.03806 41008 ft 501 kts 127°
2026-04-25 14:41 25.43794 -76.97407 41008 ft 501 kts 127°
2026-04-25 14:41 25.39917 -76.91070 41008 ft 501 kts 127°
2026-04-25 14:42 25.37325 -76.86837 41008 ft 501 kts 127°
2026-04-25 14:42 25.32116 -76.78344 41008 ft 500 kts 127°
2026-04-25 14:43 25.28213 -76.71990 41008 ft 500 kts 127°
2026-04-25 14:43 25.24307 -76.65640 41008 ft 500 kts 127°
2026-04-25 14:44 25.20388 -76.59277 41008 ft 500 kts 127°
2026-04-25 14:44 25.16475 -76.52934 41007 ft 500 kts 127°
2026-04-25 14:45 25.12563 -76.46598 41007 ft 500 kts 127°
2026-04-25 14:45 25.08670 -76.40302 41007 ft 500 kts 127°
2026-04-25 14:46 25.04759 -76.33985 41007 ft 500 kts 127°
2026-04-25 14:46 25.00827 -76.27643 41006 ft 499 kts 128°
2026-04-25 14:47 24.98236 -76.23470 41006 ft 499 kts 128°
2026-04-25 14:47 24.93004 -76.15051 41003 ft 499 kts 128°
2026-04-25 14:48 24.89103 -76.08784 41002 ft 499 kts 128°
2026-04-25 14:48 24.85183 -76.02493 41002 ft 500 kts 128°
2026-04-25 14:49 24.81240 -75.96176 41003 ft 500 kts 128°
2026-04-25 14:49 24.77318 -75.89899 41002 ft 500 kts 128°
2026-04-25 14:50 24.73360 -75.83573 41003 ft 500 kts 128°
2026-04-25 14:50 24.69437 -75.77312 41002 ft 500 kts 128°
2026-04-25 14:51 24.65492 -75.71024 41002 ft 500 kts 128°
2026-04-25 14:51 24.61543 -75.64736 41002 ft 500 kts 128°
2026-04-25 14:52 24.57602 -75.58471 41002 ft 500 kts 128°
2026-04-25 14:52 24.54976 -75.54299 41002 ft 500 kts 128°
2026-04-25 14:53 24.49699 -75.45931 41002 ft 501 kts 128°
2026-04-25 14:53 24.45747 -75.39670 41002 ft 501 kts 128°
2026-04-25 14:54 24.41762 -75.33366 41002 ft 501 kts 129°
2026-04-25 14:54 24.37797 -75.27103 41001 ft 500 kts 129°
2026-04-25 14:55 24.33841 -75.20860 41001 ft 500 kts 129°
2026-04-25 14:55 24.29893 -75.14639 41001 ft 500 kts 129°
2026-04-25 14:56 24.25903 -75.08360 41001 ft 500 kts 129°
2026-04-25 14:56 24.21930 -75.02115 41001 ft 500 kts 129°
2026-04-25 14:57 24.17960 -74.95882 41001 ft 500 kts 129°
2026-04-25 14:57 24.14003 -74.89678 41001 ft 500 kts 129°
2026-04-25 14:58 24.10021 -74.83443 41001 ft 500 kts 129°
2026-04-25 14:58 24.06052 -74.77236 41001 ft 499 kts 129°
2026-04-25 14:59 24.02081 -74.71034 41001 ft 499 kts 129°
2026-04-25 14:59 23.98099 -74.64820 41002 ft 499 kts 129°
2026-04-25 15:00 23.94128 -74.58633 41001 ft 499 kts 129°
2026-04-25 15:00 23.90131 -74.52412 41001 ft 500 kts 129°
2026-04-25 15:01 23.86142 -74.46214 41001 ft 501 kts 129°
2026-04-25 15:01 23.82181 -74.40065 41001 ft 502 kts 129°
2026-04-25 15:02 23.78111 -74.33753 41001 ft 502 kts 130°
2026-04-25 15:02 23.74105 -74.27550 41000 ft 500 kts 130°
2026-04-25 15:03 23.70083 -74.21329 41000 ft 500 kts 130°
2026-04-25 15:03 23.66080 -74.15145 41000 ft 499 kts 130°
2026-04-25 15:04 23.62091 -74.08991 41000 ft 499 kts 130°
2026-04-25 15:04 23.58077 -74.02805 40999 ft 499 kts 130°
2026-04-25 15:05 23.54091 -73.96671 40999 ft 500 kts 130°
2026-04-25 15:06 23.48053 -73.87392 40998 ft 500 kts 130°
2026-04-25 15:06 23.44045 -73.81242 40997 ft 500 kts 130°
2026-04-25 15:07 23.40035 -73.75095 40996 ft 499 kts 130°
2026-04-25 15:07 23.36031 -73.68966 40995 ft 498 kts 130°
2026-04-25 15:08 23.32015 -73.62826 40991 ft 498 kts 130°
2026-04-25 15:08 23.28013 -73.56715 40992 ft 498 kts 130°
2026-04-25 15:09 23.23983 -73.50569 40995 ft 501 kts 131°
2026-04-25 15:09 23.17851 -73.41233 40992 ft 506 kts 131°
2026-04-25 15:10 23.13771 -73.35028 40988 ft 507 kts 131°
2026-04-25 15:11 23.07631 -73.25702 40997 ft 505 kts 131°
2026-04-25 15:11 23.03542 -73.19502 40988 ft 506 kts 131°
2026-04-25 15:12 22.97403 -73.10209 40986 ft 507 kts 132°
2026-04-25 15:12 22.94662 -73.06065 40985 ft 507 kts 132°
2026-04-25 15:13 22.87135 -72.94700 40983 ft 507 kts 132°
2026-04-25 15:14 22.83007 -72.88478 40981 ft 507 kts 132°
2026-04-25 15:14 22.78908 -72.82308 40980 ft 507 kts 132°
2026-04-25 15:15 22.74795 -72.76123 40975 ft 507 kts 132°
2026-04-25 15:15 22.70668 -72.69926 40977 ft 507 kts 132°
2026-04-25 15:16 22.66557 -72.63759 40977 ft 507 kts 132°
2026-04-25 15:16 22.60366 -72.54486 40975 ft 508 kts 132°
2026-04-25 15:17 22.54150 -72.45192 40974 ft 508 kts 132°
2026-04-25 15:18 22.50007 -72.39006 40974 ft 509 kts 132°
2026-04-25 15:18 22.43800 -72.29751 40972 ft 508 kts 133°
2026-04-25 15:19 22.41027 -72.25622 40972 ft 507 kts 133°
2026-04-25 15:19 22.35527 -72.17442 40970 ft 507 kts 133°
2026-04-25 15:20 22.31362 -72.11256 40969 ft 508 kts 133°
2026-04-25 15:20 22.27231 -72.05127 40969 ft 508 kts 133°
2026-04-25 15:21 22.23067 -71.98957 40969 ft 508 kts 133°
2026-04-25 15:21 22.18882 -71.92763 40969 ft 509 kts 133°
2026-04-25 15:22 22.14706 -71.86588 40969 ft 509 kts 133°
2026-04-25 15:22 22.10527 -71.80417 40962 ft 509 kts 133°
2026-04-25 15:23 22.06353 -71.74261 40968 ft 509 kts 133°
2026-04-25 15:23 22.02172 -71.68100 40968 ft 509 kts 133°
2026-04-25 15:24 21.98010 -71.61974 40968 ft 509 kts 133°
2026-04-25 15:24 21.95228 -71.57885 40968 ft 509 kts 133°
2026-04-25 15:25 21.89659 -71.49706 40969 ft 509 kts 133°
2026-04-25 15:25 21.85452 -71.43536 40968 ft 509 kts 133°
2026-04-25 15:26 21.81266 -71.37403 40967 ft 509 kts 133°
2026-04-25 15:26 21.77106 -71.31316 40967 ft 507 kts 134°
2026-04-25 15:27 21.72910 -71.25182 40966 ft 507 kts 134°
2026-04-25 15:28 21.66661 -71.16060 40961 ft 506 kts 134°
2026-04-25 15:28 21.62487 -71.09975 40961 ft 505 kts 134°
2026-04-25 15:29 21.58311 -71.03894 40960 ft 505 kts 133°
2026-04-25 15:29 21.54312 -70.97679 40959 ft 506 kts 131°
2026-04-25 15:30 21.50363 -70.91460 40958 ft 506 kts 131°
2026-04-25 15:30 21.46401 -70.85228 40957 ft 506 kts 131°
2026-04-25 15:31 21.42434 -70.78999 40956 ft 505 kts 131°
2026-04-25 15:31 21.38473 -70.72784 40955 ft 505 kts 131°
2026-04-25 15:32 21.34510 -70.66574 40955 ft 504 kts 131°
2026-04-25 15:32 21.30565 -70.60400 40957 ft 503 kts 131°
2026-04-25 15:33 21.24652 -70.51160 40957 ft 503 kts 131°
2026-04-25 15:33 21.20688 -70.44974 40953 ft 502 kts 131°
2026-04-25 15:34 21.16744 -70.38826 40951 ft 502 kts 131°
2026-04-25 15:34 21.14113 -70.34731 40950 ft 502 kts 132°
2026-04-25 15:35 21.06879 -70.23480 40949 ft 501 kts 132°
2026-04-25 15:36 21.00960 -70.14293 40949 ft 501 kts 132°
2026-04-25 15:36 20.96994 -70.08145 40948 ft 501 kts 131°
2026-04-25 15:37 20.93054 -70.02045 40947 ft 501 kts 132°
2026-04-25 15:37 20.89094 -69.95920 40947 ft 501 kts 132°
2026-04-25 15:38 20.85148 -69.89823 40946 ft 501 kts 132°
2026-04-25 15:38 20.81164 -69.83674 40946 ft 500 kts 132°
2026-04-25 15:39 20.77227 -69.77602 40947 ft 498 kts 132°
2026-04-25 15:39 20.73285 -69.71530 40945 ft 496 kts 132°
2026-04-25 15:40 20.70667 -69.67502 40943 ft 496 kts 132°
2026-04-25 15:40 20.65448 -69.59480 40945 ft 496 kts 132°
2026-04-25 15:41 20.61498 -69.53416 40945 ft 496 kts 132°
2026-04-25 15:41 20.57573 -69.47398 40945 ft 496 kts 132°
2026-04-25 15:42 20.53642 -69.41376 40944 ft 496 kts 132°
2026-04-25 15:42 20.49696 -69.35337 40944 ft 496 kts 132°
2026-04-25 15:43 20.45747 -69.29301 40947 ft 495 kts 133°
2026-04-25 15:43 20.41814 -69.23294 40954 ft 495 kts 133°
2026-04-25 15:44 20.37892 -69.17312 40957 ft 495 kts 133°
2026-04-25 15:44 20.33953 -69.11307 40955 ft 495 kts 133°
2026-04-25 15:45 20.30026 -69.05329 40954 ft 495 kts 133°
2026-04-25 15:45 20.27379 -69.01302 40954 ft 494 kts 133°
2026-04-25 15:46 20.22137 -68.93339 40955 ft 494 kts 133°
2026-04-25 15:46 20.18198 -68.87360 40955 ft 494 kts 133°
2026-04-25 15:47 20.14249 -68.81372 40955 ft 494 kts 133°
2026-04-25 15:47 20.10318 -68.75419 40955 ft 493 kts 133°
2026-04-25 15:48 20.06456 -68.69425 40956 ft 494 kts 131°
2026-04-25 15:48 20.02680 -68.63313 40957 ft 493 kts 131°
2026-04-25 15:49 19.98921 -68.57242 40957 ft 493 kts 131°
2026-04-25 15:49 19.95159 -68.51170 40958 ft 492 kts 131°
2026-04-25 15:50 19.91386 -68.45090 40960 ft 493 kts 131°
2026-04-25 15:50 19.87619 -68.39025 40961 ft 493 kts 131°
2026-04-25 15:51 19.85117 -68.35001 40959 ft 493 kts 131°
2026-04-25 15:51 19.80094 -68.26928 40963 ft 491 kts 131°
2026-04-25 15:52 19.76333 -68.20891 40972 ft 491 kts 131°
2026-04-25 15:52 19.72562 -68.14846 40988 ft 491 kts 131°
2026-04-25 15:53 19.68787 -68.08800 40995 ft 491 kts 131°
2026-04-25 15:53 19.65017 -68.02768 40992 ft 491 kts 131°
2026-04-25 15:54 19.63152 -67.99785 40711 ft 489 kts 131°
2026-04-25 15:54 19.61277 -67.96785 40112 ft 485 kts 131°
2026-04-25 15:54 19.59430 -67.93832 39551 ft 482 kts 132°
2026-04-25 15:54 19.57573 -67.90867 39038 ft 481 kts 132°
2026-04-25 15:55 19.55713 -67.87900 38419 ft 481 kts 132°
2026-04-25 15:55 19.53873 -67.84966 37638 ft 480 kts 132°
2026-04-25 15:55 19.52049 -67.82056 36918 ft 478 kts 132°
2026-04-25 15:55 19.50215 -67.79131 36244 ft 474 kts 132°
2026-04-25 15:56 19.48393 -67.76228 35584 ft 470 kts 132°
2026-04-25 15:56 19.46589 -67.73353 34977 ft 465 kts 132°
2026-04-25 15:56 19.44803 -67.70508 34400 ft 461 kts 132°
2026-04-25 15:56 19.43050 -67.67718 33839 ft 457 kts 132°
2026-04-25 15:57 19.41285 -67.64910 33277 ft 452 kts 131°
2026-04-25 15:57 19.39556 -67.62162 32719 ft 449 kts 131°
2026-04-25 15:57 19.37836 -67.59431 32140 ft 447 kts 131°
2026-04-25 15:57 19.36102 -67.56677 31534 ft 445 kts 131°
2026-04-25 15:58 19.34394 -67.53968 30949 ft 442 kts 131°
2026-04-25 15:58 19.32704 -67.51287 30370 ft 439 kts 131°
2026-04-25 15:58 19.31003 -67.48591 29789 ft 436 kts 130°
2026-04-25 15:58 19.29317 -67.45920 29223 ft 433 kts 130°
2026-04-25 15:59 19.27650 -67.43278 28645 ft 431 kts 130°
2026-04-25 15:59 19.26003 -67.40672 28080 ft 429 kts 130°
2026-04-25 15:59 19.24343 -67.38045 27509 ft 427 kts 130°
2026-04-25 15:59 19.22688 -67.35426 26943 ft 425 kts 129°
2026-04-25 16:00 19.21065 -67.32860 26386 ft 422 kts 130°
2026-04-25 16:00 19.20516 -67.31992 26190 ft 421 kts 129°
2026-04-25 16:00 19.17812 -67.27719 25268 ft 415 kts 129°
2026-04-25 16:00 19.16229 -67.25219 24724 ft 412 kts 129°
2026-04-25 16:01 19.14629 -67.22691 24171 ft 408 kts 129°
2026-04-25 16:01 19.13055 -67.20208 23635 ft 404 kts 129°
2026-04-25 16:01 19.11502 -67.17757 23107 ft 399 kts 129°
2026-04-25 16:01 19.09985 -67.15366 22584 ft 394 kts 129°
2026-04-25 16:02 19.08465 -67.12968 22069 ft 389 kts 129°
2026-04-25 16:02 19.06956 -67.10590 21551 ft 384 kts 129°
2026-04-25 16:02 19.05474 -67.08255 21041 ft 380 kts 129°
2026-04-25 16:02 19.04021 -67.05967 20544 ft 375 kts 129°
2026-04-25 16:03 19.02587 -67.03709 20053 ft 371 kts 129°
2026-04-25 16:03 19.01156 -67.01458 19564 ft 366 kts 128°
2026-04-25 16:03 18.99735 -66.99223 19077 ft 362 kts 128°
2026-04-25 16:03 18.98358 -66.97059 18606 ft 358 kts 128°
2026-04-25 16:04 18.96971 -66.94879 18133 ft 354 kts 128°
2026-04-25 16:04 18.95597 -66.92722 17663 ft 350 kts 128°
2026-04-25 16:04 18.94258 -66.90619 17211 ft 347 kts 128°
2026-04-25 16:04 18.92911 -66.88504 16743 ft 344 kts 128°
2026-04-25 16:05 18.91595 -66.86439 16296 ft 341 kts 128°
2026-04-25 16:05 18.90282 -66.84380 15845 ft 338 kts 128°
2026-04-25 16:05 18.87679 -66.80299 14965 ft 332 kts 128°
2026-04-25 16:06 18.86385 -66.78272 14520 ft 329 kts 128°
2026-04-25 16:06 18.85121 -66.76290 14097 ft 326 kts 128°
2026-04-25 16:06 18.83860 -66.74315 13662 ft 324 kts 127°
2026-04-25 16:06 18.82602 -66.72346 13230 ft 321 kts 127°
2026-04-25 16:07 18.81352 -66.70389 12806 ft 319 kts 127°
2026-04-25 16:07 18.80936 -66.69738 12660 ft 318 kts 127°
2026-04-25 16:07 18.78906 -66.66563 11972 ft 313 kts 127°
2026-04-25 16:07 18.77681 -66.64649 11556 ft 310 kts 127°
2026-04-25 16:08 18.76489 -66.62785 11151 ft 307 kts 127°
2026-04-25 16:08 18.75229 -66.60990 10757 ft 303 kts 131°
2026-04-25 16:08 18.73898 -66.59274 10412 ft 299 kts 132°
2026-04-25 16:08 18.72596 -66.57596 10176 ft 297 kts 131°
2026-04-25 16:09 18.71275 -66.55893 9891 ft 298 kts 131°
2026-04-25 16:09 18.69957 -66.54197 9560 ft 297 kts 131°
2026-04-25 16:09 18.68668 -66.52534 9285 ft 293 kts 131°
2026-04-25 16:09 18.67379 -66.50874 8980 ft 292 kts 131°
2026-04-25 16:10 18.66093 -66.49215 8688 ft 290 kts 131°
2026-04-25 16:10 18.64807 -66.47558 8375 ft 289 kts 131°
2026-04-25 16:10 18.63559 -66.45948 8104 ft 286 kts 131°
2026-04-25 16:10 18.62303 -66.44329 7803 ft 284 kts 131°
2026-04-25 16:11 18.61042 -66.42703 7510 ft 281 kts 131°
2026-04-25 16:11 18.59816 -66.41122 7217 ft 281 kts 131°
2026-04-25 16:11 18.58581 -66.39532 6945 ft 277 kts 131°
2026-04-25 16:11 18.57357 -66.37957 6552 ft 280 kts 131°
2026-04-25 16:12 18.56136 -66.36389 6147 ft 276 kts 131°
2026-04-25 16:12 18.54935 -66.34843 5833 ft 270 kts 132°
2026-04-25 16:12 18.53753 -66.33318 5537 ft 269 kts 132°
2026-04-25 16:12 18.53356 -66.32809 5435 ft 269 kts 132°
2026-04-25 16:13 18.51374 -66.30260 4941 ft 267 kts 132°
2026-04-25 16:13 18.50212 -66.28765 4653 ft 265 kts 132°
2026-04-25 16:13 18.49043 -66.27261 4375 ft 264 kts 131°
2026-04-25 16:13 18.47874 -66.25760 4088 ft 263 kts 131°
2026-04-25 16:14 18.46727 -66.24285 3826 ft 261 kts 131°
2026-04-25 16:14 18.45566 -66.22794 3526 ft 261 kts 131°
2026-04-25 16:14 18.44416 -66.21313 3261 ft 259 kts 130°
2026-04-25 16:14 18.43559 -66.19649 3056 ft 261 kts 108°
2026-04-25 16:15 18.43351 -66.17745 3009 ft 265 kts 92°
2026-04-25 16:15 18.43364 -66.15822 3002 ft 266 kts 92°
2026-04-25 16:15 18.43370 -66.13860 2994 ft 267 kts 92°
2026-04-25 16:15 18.43382 -66.11883 2308 ft 278 kts 91°
2026-04-25 16:16 18.43433 -66.09865 1802 ft 270 kts 89°
2026-04-25 16:16 18.43519 -66.07958 1605 ft 246 kts 90°
2026-04-25 16:16 18.43521 -66.06274 1565 ft 228 kts 92°
2026-04-25 16:16 18.43490 -66.04639 1396 ft 217 kts 94°
2026-04-25 16:17 18.43452 -66.03120 1482 ft 195 kts 94°
2026-04-25 16:17 18.43423 -66.01739 1827 ft 186 kts 93°
2026-04-25 16:17 18.43394 -66.00386 2336 ft 190 kts 93°
2026-04-25 16:17 18.43358 -65.98932 2796 ft 205 kts 93°
2026-04-25 16:18 18.43346 -65.97375 2952 ft 216 kts 90°
2026-04-25 16:18 18.43345 -65.96849 2976 ft 214 kts 92°
2026-04-25 16:18 18.44227 -65.94493 2996 ft 218 kts 38°
2026-04-25 16:18 18.45634 -65.93983 2989 ft 218 kts 358°
2026-04-25 16:19 18.47109 -65.94370 2989 ft 219 kts 338°
2026-04-25 16:19 18.48538 -65.94983 3002 ft 221 kts 336°
2026-04-25 16:19 18.49951 -65.95604 2991 ft 220 kts 336°
2026-04-25 16:20 18.52506 -65.97289 2867 ft 221 kts 298°
2026-04-25 16:20 18.52878 -65.98860 2414 ft 223 kts 269°
2026-04-25 16:20 18.52838 -66.02078 2001 ft 209 kts 266°
2026-04-25 16:21 18.52812 -66.03597 2000 ft 208 kts 266°
2026-04-25 16:21 18.52786 -66.05119 1989 ft 209 kts 266°
2026-04-25 16:21 18.52757 -66.06649 1991 ft 208 kts 266°
2026-04-25 16:21 18.52724 -66.08189 1980 ft 209 kts 266°
2026-04-25 16:22 18.52688 -66.09725 1985 ft 209 kts 266°
2026-04-25 16:22 18.52650 -66.11249 1996 ft 210 kts 266°
2026-04-25 16:22 18.52610 -66.12792 1991 ft 209 kts 266°
2026-04-25 16:22 18.52573 -66.14311 1985 ft 210 kts 266°
2026-04-25 16:23 18.52343 -66.15818 1990 ft 205 kts 242°
2026-04-25 16:23 18.51366 -66.16842 1992 ft 200 kts 201°
2026-04-25 16:23 18.49976 -66.17023 1996 ft 201 kts 178°
2026-04-25 16:23 18.48571 -66.16937 1988 ft 202 kts 176°
2026-04-25 16:24 18.47193 -66.16817 2002 ft 196 kts 169°
2026-04-25 16:24 18.46065 -66.16129 2015 ft 185 kts 128°
2026-04-25 16:24 18.45437 -66.14934 2016 ft 185 kts 117°
2026-04-25 16:24 18.44912 -66.13720 2029 ft 178 kts 116°
2026-04-25 16:25 18.44407 -66.12530 1995 ft 176 kts 116°
2026-04-25 16:25 18.44238 -66.12132 2000 ft 175 kts 116°
2026-04-25 16:25 18.43461 -66.10125 1655 ft 186 kts 105°
2026-04-25 16:25 18.43355 -66.08802 1393 ft 176 kts 92°
2026-04-25 16:26 18.43369 -66.07550 1178 ft 165 kts 92°
2026-04-25 16:26 18.43371 -66.06389 948 ft 150 kts 92°
2026-04-25 16:26 18.43367 -66.05334 773 ft 143 kts 92°
2026-04-25 16:26 18.43364 -66.04322 607 ft 130 kts 92°
2026-04-25 16:27 18.43362 -66.03383 444 ft 130 kts 92°
2026-04-25 16:27 18.43359 -66.02440 220 ft 124 kts 92°
2026-04-25 16:27 18.43358 -66.01522 118 ft 124 kts 92°
2026-04-25 16:27 18.43367 -66.00678 15 ft 102 kts 91°
2026-04-25 16:28 18.43352 -66.00114 18 ft 36 kts 90°
2026-04-25 16:28 18.43405 -65.99922 17 ft 14 kts 60°
2026-04-25 16:28 18.43446 -65.99881 17 ft 5 kts 17°
2026-04-25 16:28 18.43490 -65.99903 17 ft 9 kts 335°
2026-04-25 16:29 18.43587 -65.99951 18 ft 19 kts 317°
2026-04-25 16:29 18.43720 -65.99987 20 ft 21 kts 347°
2026-04-25 16:29 18.43848 -66.00051 27 ft 21 kts 331°
2026-04-25 16:29 18.43994 -66.00118 26 ft 24 kts 339°
2026-04-25 16:30 18.44125 -66.00176 24 ft 15 kts 336°
2026-04-25 16:30 18.44192 -66.00131 23 ft 19 kts 68°
2026-04-25 16:30 18.44224 -66.00050 23 ft 4 kts 67°
2026-04-25 16:30 18.44251 -65.99981 22 ft 21 kts 68°
2026-04-25 16:31 18.44223 -65.99919 20 ft 11 kts 157°
2026-04-25 16:31 18.44145 -65.99886 19 ft 10 kts 89°
2026-04-25 16:31 18.44138 -65.99849 18 ft 4 kts 211°
2026-04-25 16:31 18.44132 -65.99859 18 ft 0 kts 240°
2026-04-25 16:32 18.44151 -65.99830 17 ft 0 kts 231°
2026-04-25 16:32 18.44142 -65.99857 18 ft 0 kts 246°